TimeCDT,TemperatureF,Dew PointF,Humidity,Sea Level PressureIn,VisibilityMPH,Wind Direction,Wind SpeedMPH,Gust SpeedMPH,PrecipitationIn,Events,Conditions,WindDirDegrees,DateUTC
12:53 AM,55.9,52.0,87,30.06,10.0,Calm,Calm,-,N/A,,Clear,0,2013-04-08 05:53:00
1:53 AM,55.9,53.1,90,30.05,10.0,Calm,Calm,-,N/A,,Clear,0,2013-04-08 06:53:00
2:53 AM,54.0,52.0,93,30.05,10.0,Calm,Calm,-,N/A,,Clear,0,2013-04-08 07:53:00
3:53 AM,53.1,51.1,93,30.06,10.0,Calm,Calm,-,N/A,,Clear,0,2013-04-08 08:53:00
4:53 AM,54.0,52.0,93,30.06,10.0,Calm,Calm,-,N/A,,Clear,0,2013-04-08 09:53:00
5:53 AM,53.1,51.1,93,30.08,10.0,Calm,Calm,-,N/A,,Clear,0,2013-04-08 10:53:00
6:53 AM,53.1,52.0,96,30.09,10.0,Calm,Calm,-,N/A,,Clear,0,2013-04-08 11:53:00
7:53 AM,61.0,57.0,87,30.11,10.0,East,4.6,-,N/A,,Clear,100,2013-04-08 12:53:00
8:53 AM,66.0,59.0,78,30.11,10.0,SSE,6.9,-,N/A,,Clear,160,2013-04-08 13:53:00
9:53 AM,73.0,60.1,64,30.12,10.0,South,12.7,-,N/A,,Clear,170,2013-04-08 14:53:00
10:53 AM,77.0,59.0,54,30.13,10.0,South,9.2,-,N/A,,Clear,170,2013-04-08 15:53:00
11:53 AM,78.1,57.0,48,30.12,10.0,South,10.4,18.4,N/A,,Mostly Cloudy,180,2013-04-08 16:53:00
12:53 PM,81.0,55.9,42,30.11,10.0,SSW,11.5,-,N/A,,Mostly Cloudy,200,2013-04-08 17:53:00
1:53 PM,79.0,55.9,45,30.08,10.0,South,9.2,-,N/A,,Scattered Clouds,190,2013-04-08 18:53:00
2:53 PM,81.0,57.0,44,30.06,10.0,South,10.4,-,N/A,,Mostly Cloudy,170,2013-04-08 19:53:00
3:53 PM,81.0,57.0,44,30.05,10.0,Variable,6.9,-,N/A,,Mostly Cloudy,0,2013-04-08 20:53:00
4:53 PM,79.0,57.0,47,30.05,10.0,South,6.9,-,N/A,,Mostly Cloudy,170,2013-04-08 21:53:00
5:53 PM,79.0,57.9,48,30.05,10.0,South,12.7,16.1,N/A,,Clear,180,2013-04-08 22:53:00
6:53 PM,75.0,59.0,57,30.06,10.0,South,8.1,-,N/A,,Clear,170,2013-04-08 23:53:00
7:53 PM,72.0,59.0,64,30.08,10.0,South,4.6,-,N/A,,Clear,170,2013-04-09 00:53:00
8:53 PM,68.0,57.9,70,30.10,10.0,South,3.5,-,N/A,,Clear,170,2013-04-09 01:53:00
9:53 PM,66.0,57.0,73,30.11,10.0,Calm,Calm,-,N/A,,Clear,0,2013-04-09 02:53:00
10:53 PM,63.0,57.0,81,30.09,10.0,Calm,Calm,-,N/A,,Clear,0,2013-04-09 03:53:00
11:53 PM,61.0,57.0,87,30.09,10.0,Calm,Calm,-,N/A,,Clear,0,2013-04-09 04:53:00